Gunnison, CO

8:50 PM MDT on August 18, 2017 (GMT -0600)
Gunnison County

Weather History for KGUC - November, 2012

Change the Weather History Date:

Saturday, November 10, 2012

  Actual Average Record
Temperature  
Mean Temperature 29 °F -  
Max Temperature 41 °F 41 °F 64 °F (2016)
Min Temperature 17 °F 15 °F 5 °F (1998)
Degree Days  
Heating Degree Days 36    
Moisture  
Dew Point 17 °F    
Average Humidity 59    
Maximum Humidity 81    
Minimum Humidity 32    
Precipitation  
Precipitation 0.04 in - - ()
Sea Level Pressure  
Sea Level Pressure 29.70 in    
Wind  
Wind Speed 11 mph (SW)    
Max Wind Speed 21 mph    
Max Gust Speed 30 mph    
Visibility 8 miles    
Events      
Averages and records for this station are not official NWS values.
T = Trace of Precipitation, MM = Missing Value Source: NWS Daily Summary

Daily Weather History Graph

Daily Weather History Graph

Search for Another Location

Airport or City:

Trip Planner

Search our weather history database for the weather conditions in past years. The results will help you decide how hot, cold, wet, or windy it might be!

Date:

Astronomy

Nov. 10, 2012 Rise Set
Actual Time 6:44 AM MST 4:58 PM MST
Civil Twilight 6:16 AM MST 5:26 PM MST
Nautical Twilight 5:44 AM MST 5:58 PM MST
Astronomical Twilight 5:13 AM MST 6:29 PM MST
Moon 2:55 AM MST (11/10) 2:44 PM MST (11/10)
Length of Visible Light 11h 09m
Length of Day
10h 13m
Waning Crescent, 14% of the Moon is Illuminated
Nov 10
Waning Crescent
Nov 13
New
Nov 20
First Quarter
Nov 28
Full
Dec 6
Last Quarter

Hourly Weather History & Observations

Time (MST) Temp. Windchill Dew Point Humidity Pressure Visibility Wind Dir Wind Speed Gust Speed Precip Events Conditions
12:15 AM 37.4 °F 29.3 °F 19.4 °F 48% 29.73 in 10.0 mi South 12.7 mph - N/A   Clear
12:35 AM 39.2 °F 33.0 °F 17.6 °F 42% 29.71 in 10.0 mi SSE 9.2 mph - N/A   Clear
12:55 AM 37.4 °F 31.4 °F 19.4 °F 48% 29.69 in 10.0 mi South 8.1 mph - N/A   Clear
1:15 AM 37.4 °F 29.3 °F 19.4 °F 48% 29.69 in 10.0 mi SSE 12.7 mph - N/A   Clear
1:55 AM 37.4 °F 28.2 °F 21.2 °F 52% 29.66 in 10.0 mi SSE 16.1 mph - N/A   Partly Cloudy
2:15 AM 35.6 °F 30.7 °F 24.8 °F 65% 29.67 in 10.0 mi SE 5.8 mph - N/A   Clear
2:35 AM 39.2 °F 33.6 °F 24.8 °F 56% 29.65 in 10.0 mi SSW 8.1 mph - N/A   Partly Cloudy
2:55 AM 39.2 °F 32.5 °F 26.6 °F 61% 29.64 in 10.0 mi South 10.4 mph - N/A   Mostly Cloudy
3:15 AM 39.2 °F 32.5 °F 24.8 °F 56% 29.63 in 10.0 mi SSE 10.4 mph - N/A   Mostly Cloudy
3:35 AM 41.0 °F 35.2 °F 24.8 °F 53% 29.62 in 10.0 mi South 9.2 mph 17.3 mph N/A   Overcast
3:55 AM 41.0 °F 32.8 °F 24.8 °F 53% 29.61 in 10.0 mi South 16.1 mph 21.9 mph N/A   Overcast
4:15 AM 41.0 °F 35.8 °F 24.8 °F 53% 29.61 in 10.0 mi WSW 8.1 mph - N/A   Overcast
4:35 AM 37.4 °F 32.1 °F 26.6 °F 65% 29.63 in 8.0 mi SW 6.9 mph - N/A   Overcast
4:55 AM 35.6 °F 28.0 °F 26.6 °F 70% 29.63 in 3.0 mi West 10.4 mph - N/A   Overcast
5:35 AM 33.8 °F 30.8 °F 28.4 °F 81% 29.65 in 2.0 mi West 3.5 mph - N/A   Overcast
5:55 AM 33.8 °F - 28.4 °F 81% 29.63 in 2.0 mi Calm Calm - N/A   Overcast
6:15 AM 33.8 °F - 28.4 °F 81% 29.63 in 5.0 mi Calm Calm - 0.02 in   Overcast
6:35 AM 33.8 °F 28.6 °F 28.4 °F 81% 29.62 in 2.0 mi SSE 5.8 mph - 0.04 in   Overcast
6:55 AM 33.8 °F 28.6 °F 28.4 °F 81% 29.62 in 10.0 mi SSE 5.8 mph - 0.04 in   Overcast
7:15 AM 33.8 °F - 28.4 °F 81% 29.62 in 10.0 mi Calm Calm - N/A   Overcast
7:35 AM 33.8 °F 26.4 °F 28.4 °F 81% 29.64 in 3.0 mi SSW 9.2 mph - N/A   Overcast
7:55 AM 32.0 °F 22.5 °F 24.8 °F 75% 29.66 in 10.0 mi WSW 12.7 mph 24.2 mph N/A   Overcast
8:15 AM 30.2 °F 20.8 °F 24.8 °F 80% 29.67 in 2.0 mi SSW 11.5 mph 16.1 mph N/A   Overcast
8:35 AM 30.2 °F 21.9 °F 24.8 °F 80% 29.66 in 7.0 mi SSW 9.2 mph - N/A   Overcast
8:55 AM 30.2 °F 22.6 °F 24.8 °F 80% 29.65 in 10.0 mi SW 8.1 mph - N/A   Overcast
9:15 AM 32.0 °F 23.6 °F 23.0 °F 69% 29.65 in 10.0 mi SW 10.4 mph 17.3 mph N/A   Overcast
9:35 AM 30.2 °F 20.8 °F 21.2 °F 69% 29.66 in 8.0 mi SW 11.5 mph - N/A   Overcast
9:55 AM 28.4 °F 17.0 °F 21.2 °F 74% 29.69 in 1.5 mi WSW 15.0 mph 23.0 mph N/A   Overcast
10:15 AM 28.4 °F 17.0 °F 21.2 °F 74% 29.69 in 4.0 mi WSW 15.0 mph - N/A   Overcast
10:35 AM 28.4 °F 17.0 °F 23.0 °F 80% 29.68 in 2.5 mi WSW 15.0 mph - N/A   Overcast
10:55 AM 28.4 °F 17.5 °F 23.0 °F 80% 29.69 in 5.0 mi WSW 13.8 mph - N/A   Overcast
11:15 AM 30.2 °F 19.8 °F 21.2 °F 69% 29.69 in 8.0 mi WSW 13.8 mph 19.6 mph N/A   Overcast
11:35 AM 30.2 °F 20.8 °F 19.4 °F 64% 29.69 in 10.0 mi WSW 11.5 mph 16.1 mph N/A   Overcast
11:55 AM 32.0 °F 21.6 °F 17.6 °F 55% 29.68 in 10.0 mi WSW 15.0 mph - N/A   Overcast
12:15 PM 32.0 °F 23.0 °F 19.4 °F 60% 29.68 in 10.0 mi WSW 11.5 mph - N/A   Overcast
12:35 PM 32.0 °F 20.8 °F 17.6 °F 55% 29.67 in 10.0 mi WSW 17.3 mph 23.0 mph N/A   Mostly Cloudy
1:15 PM 30.2 °F 19.8 °F 12.2 °F 47% 29.67 in 10.0 mi West 13.8 mph 24.2 mph N/A   Overcast
1:35 PM 30.2 °F 19.8 °F 10.4 °F 44% 29.67 in 10.0 mi WSW 13.8 mph 19.6 mph N/A   Overcast
1:55 PM 30.2 °F 17.4 °F 10.4 °F 44% 29.67 in 10.0 mi WSW 20.7 mph 27.6 mph N/A   Mostly Cloudy
2:15 PM 32.0 °F 20.8 °F 8.6 °F 38% 29.67 in 10.0 mi West 17.3 mph 29.9 mph N/A   Partly Cloudy
2:35 PM 30.2 °F 18.1 °F 6.8 °F 37% 29.68 in 10.0 mi West 18.4 mph 27.6 mph N/A   Mostly Cloudy
2:55 PM 30.2 °F 18.1 °F 6.8 °F 37% 29.69 in 10.0 mi West 18.4 mph 25.3 mph N/A   Partly Cloudy
3:15 PM 30.2 °F 18.5 °F 3.2 °F 32% 29.70 in 10.0 mi West 17.3 mph 25.3 mph N/A   Clear
3:55 PM 28.4 °F 16.6 °F 3.2 °F 34% 29.72 in 10.0 mi WSW 16.1 mph 25.3 mph N/A   Clear
4:15 PM 28.4 °F 19.1 °F 5.0 °F 37% 29.73 in 10.0 mi West 10.4 mph 19.6 mph N/A   Clear
4:35 PM 26.6 °F 14.3 °F 5.0 °F 40% 29.72 in 10.0 mi WSW 16.1 mph 24.2 mph N/A   Clear
4:55 PM 26.6 °F 13.8 °F 5.0 °F 40% 29.73 in 10.0 mi West 17.3 mph 21.9 mph N/A   Clear
5:15 PM 26.6 °F 13.8 °F 3.2 °F 37% 29.74 in 10.0 mi West 17.3 mph - N/A   Clear
5:35 PM 26.6 °F 15.2 °F 3.2 °F 37% 29.74 in 10.0 mi WSW 13.8 mph 21.9 mph N/A   Clear
6:15 PM 24.8 °F 11.1 °F 6.8 °F 46% 29.74 in 10.0 mi WSW 18.4 mph - N/A   Clear
6:35 PM 24.8 °F 11.9 °F 5.0 °F 43% 29.76 in 10.0 mi WSW 16.1 mph 24.2 mph N/A   Scattered Clouds
6:55 PM 24.8 °F 11.5 °F 5.0 °F 43% 29.76 in 10.0 mi West 17.3 mph 21.9 mph N/A   Partly Cloudy
7:15 PM 24.8 °F 12.4 °F 6.8 °F 46% 29.77 in 10.0 mi West 15.0 mph 21.9 mph N/A   Clear
7:55 PM 23.0 °F 18.4 °F 6.8 °F 50% 29.78 in 10.0 mi SE 3.5 mph - N/A   Clear
8:15 PM 19.4 °F 10.4 °F 6.8 °F 58% 29.79 in 10.0 mi East 6.9 mph - N/A   Clear
8:35 PM 19.4 °F 14.3 °F 8.6 °F 63% 29.80 in 10.0 mi WSW 3.5 mph - N/A   Scattered Clouds
9:15 PM 21.2 °F - 8.6 °F 58% 29.80 in 10.0 mi Calm Calm - N/A   Clear
9:35 PM 17.6 °F 6.4 °F 5.0 °F 58% 29.80 in 10.0 mi SSE 9.2 mph - N/A   Clear
9:55 PM 17.6 °F 6.4 °F 8.6 °F 68% 29.80 in 10.0 mi SE 9.2 mph - N/A   Clear
10:35 PM 17.6 °F 10.7 °F 6.8 °F 63% 29.81 in 10.0 mi SW 4.6 mph - N/A   Overcast
10:55 PM 19.4 °F 12.8 °F 10.4 °F 68% 29.81 in 9.0 mi SSW 4.6 mph - N/A   Mostly Cloudy
11:15 PM 21.2 °F 11.7 °F 12.2 °F 68% 29.81 in 10.0 mi SW 8.1 mph - N/A   Scattered Clouds
11:35 PM 19.4 °F 11.5 °F 14.0 °F 80% 29.81 in 4.0 mi SSW 5.8 mph - N/A   Mostly Cloudy
11:55 PM 19.4 °F 9.5 °F 12.2 °F 74% 29.81 in 9.0 mi SSW 8.1 mph - N/A   Scattered Clouds